[[{"header":{"parameterUnit":"m.s-1","parameterCategory":1,"la1":30.2991,"la2":30.254,"lo1":-89.0895,"lo2":-89.0444,"dy":0.0017,"dx":0.0017,"nx":28,"ny":28,"refTime":"2026-02-08T03:00:00:Z","depth":0,"parameterNumber":2,"parameterNumberName":"U-component_of_WINDS"},"data":[0,0,0,0,0,0,0,0,0,0,0,0,0,0,0,0,0,0,0,0,0,0,0,0,0,0,0,0,0,0,0,0,0,0,0,0,0,0,0,0,0,0,0,0,0,0,0,0,0,0,0,0,0,0,0,0,0,0,-2.1637,-2.1637,0,-2.1622,-2.1622,-2.1622,-2.1532,-2.153,-2.1528,-2.1526,-2.151,-2.1512,-2.1513,0,0,0,0,0,0,0,0,0,0,0,0,0,-2.159,-2.1592,-2.1637,-2.1637,-2.1637,-2.1622,-2.1622,-2.1622,-2.1532,-2.153,-2.1527,-2.1525,-2.151,-2.1512,-2.1514,0,0,0,0,0,0,0,0,0,0,0,0,0,-2.1597,-2.1592,-2.1637,-2.1591,-2.1586,-2.1622,-2.1622,-2.1622,-2.1533,-2.153,-2.1526,-2.1523,-2.1509,-2.1512,-2.1514,-2.1594,0,0,-2.1521,-2.1522,0,0,0,0,0,0,0,0,-2.1596,-2.1598,-2.1598,-2.1594,-2.1589,-2.1576,-2.16,-2.1612,-2.1534,-2.1553,-2.1526,-2.1522,-2.1535,-2.1535,-2.1539,-2.1593,-2.1592,-2.1521,-2.1523,-2.1524,-2.1525,0,0,0,0,0,0,0,-2.1596,-2.1599,-2.1631,-2.1598,-2.1593,-2.1571,-2.1568,-2.1602,-2.1562,-2.1551,-2.1545,-2.1544,-2.1532,-2.1537,-2.1538,-2.1592,-2.1521,-2.1524,-2.1525,-2.1526,-2.1713,-2.1717,0,0,0,0,0,0,-2.1602,-2.1599,-2.1632,-2.1631,-2.1585,-2.1574,-2.1571,-2.1583,-2.1562,-2.1555,-2.1547,-2.154,-2.1534,-2.1535,-2.1537,-2.1631,-2.1524,-2.1526,-2.1528,-2.171,-2.1714,-2.1718,0,0,0,0,0,0,-2.1601,-2.1606,-2.1632,-2.1613,-2.1615,-2.1579,-2.1593,-2.1585,-2.159,-2.1558,-2.1551,-2.156,-2.1532,-2.1534,-2.1581,-2.1629,-2.1527,-2.153,-2.1706,-2.1711,-2.1716,-2.1818,0,0,0,0,0,0,-2.16,-2.1606,-2.1636,-2.1614,-2.1616,-2.1676,-2.1596,-2.1587,-2.1594,-2.1585,-2.1568,-2.1562,-2.153,-2.1578,-2.1583,-2.163,-2.1531,-2.1701,-2.1708,-2.1714,-2.181,-2.1826,-2.184,0,0,0,0,0,-2.1599,-2.1664,-2.1638,-2.1642,-2.1652,-2.1679,-2.168,-2.1641,-2.1598,-2.1628,-2.1608,-2.1563,-2.1623,-2.1583,-2.1589,-2.1637,-2.1698,-2.1706,-2.1714,-2.1803,-2.1823,-2.1839,0,0,0,0,0,0,-2.1691,-2.1661,-2.1631,-2.1691,-2.1689,-2.1664,-2.17,-2.1662,-2.1672,-2.1663,-2.1614,-2.1611,-2.1666,-2.1656,-2.1613,-2.1715,-2.1653,-2.1662,-2.1719,-2.1737,-2.1752,-2.1753,-2.1533,0,0,0,0,0,-2.1719,-2.1743,-2.1715,-2.1771,-2.1771,-2.1737,-2.1746,-2.1717,-2.1712,-2.1711,-2.1694,-2.1692,-2.171,-2.1723,-2.1738,-2.1808,-2.1804,-2.1845,-2.1859,-2.1872,-2.1881,-2.1919,-2.1937,-2.1744,-2.1744,-2.1744,0,0,-2.1776,-2.1762,-2.178,-2.1789,-2.1784,-2.1811,-2.1736,-2.1767,-2.1787,-2.1715,-2.1759,-2.1747,-2.1741,-2.1801,-2.1826,-2.1795,-2.1933,-2.1882,-2.1892,-2.1894,-2.1929,-2.1947,-2.1964,-2.1749,-2.1748,-2.1747,0,0,-2.1893,-2.1885,-2.1931,-2.1928,-2.1921,-2.1898,-2.1909,-2.1891,-2.1881,-2.1924,-2.1872,-2.1895,-2.1927,-2.1925,-2.1929,-2.2049,-2.2008,-2.2055,-2.2132,-2.2171,-2.2186,-2.2199,-2.2243,-2.226,-2.2064,-2.2064,-2.2064,0,-2.1965,-2.2003,-2.196,-2.1995,-2.2002,-2.1939,-2.1987,-2.1985,-2.1984,-2.199,-2.1955,-2.1995,-2.1987,-2.2046,-2.2076,-2.208,-2.2093,-2.2057,-2.2187,-2.22,-2.2212,-2.2253,-2.227,-2.207,-2.2069,-2.2069,-2.2068,0,-2.2092,-2.2119,-2.2158,-2.2159,-2.2169,-2.2211,-2.2175,-2.2191,-2.2162,-2.2143,-2.2189,-2.2177,-2.2189,-2.2201,-2.2171,-2.2257,-2.2238,-2.2196,-2.2132,-2.2237,-2.2275,-2.2291,-2.2078,-2.2076,-2.2075,-2.2073,0,0,-2.2265,-2.2244,-2.2259,-2.226,-2.2249,-2.2269,-2.2309,-2.2321,-2.2337,-2.2339,-2.2371,-2.2401,-2.2363,-2.2367,-2.2337,-2.237,-2.2468,-2.2324,-2.2323,-2.2352,-2.2564,-2.2597,-2.2616,-2.2441,-2.2444,-2.2446,-2.2565,0,-2.2378,-2.2444,-2.2408,-2.2479,-2.2505,-2.2448,-2.2482,-2.248,-2.2464,-2.2484,-2.2465,-2.2488,-2.2435,-2.2437,-2.2468,-2.245,-2.251,-2.2441,-2.2472,-2.2474,-2.2476,-2.2635,-2.2669,-2.2782,-2.258,-2.2582,-2.2584,0,-2.2519,-2.2528,-2.2602,-2.2588,-2.2598,-2.2629,-2.264,-2.2659,-2.2656,-2.2642,-2.2648,-2.2611,-2.265,-2.2588,-2.2641,-2.2595,-2.2606,-2.2599,-2.2603,-2.2604,-2.2535,-2.2642,-2.2816,-2.2834,-2.2607,-2.2605,-2.2603,0,-2.2639,-2.267,-2.2719,-2.2721,-2.2706,-2.273,-2.2725,-2.2719,-2.273,-2.2739,-2.2745,-2.2759,-2.2766,-2.2778,-2.2746,-2.2703,-2.2805,-2.2739,-2.2795,-2.2796,-2.2819,-2.2818,-2.2998,-2.2825,-2.2825,-2.2824,-2.2824,0,-2.277,-2.2818,-2.2773,-2.2803,-2.2856,-2.2815,-2.2868,-2.2857,-2.2852,-2.288,-2.2831,-2.2858,-2.2814,-2.2837,-2.2812,-2.2861,-2.2865,-2.2855,-2.2848,-2.286,-2.2861,-2.2866,-2.2858,-2.2829,-2.2828,-2.2827,-2.2826,0,-2.2913,-2.2885,-2.2934,-2.2917,-2.2914,-2.2954,-2.2939,-2.2967,-2.2948,-2.2984,-2.299,-2.2961,-2.2986,-2.2955,-2.2977,-2.296,-2.3028,-2.3009,-2.3029,-2.3024,-2.3082,-2.3078,-2.3272,-2.3296,-2.3107,-2.3109,-2.3111,0,-2.2998,-2.3034,-2.3021,-2.3036,-2.3035,-2.306,-2.3071,-2.3033,-2.3047,-2.3048,-2.3076,-2.3097,-2.3111,-2.3154,-2.3135,-2.3152,-2.3134,-2.3201,-2.3136,-2.3147,-2.3136,-2.3135,-2.3139,-2.3214,-2.3216,-2.3218,-2.322,0,-2.3152,-2.3138,-2.3156,-2.3171,-2.3186,-2.3195,-2.3201,-2.3216,-2.3177,-2.3195,-2.3221,-2.3232,-2.3256,-2.3278,-2.329,-2.3285,-2.3247,-2.3241,-2.3255,-2.3267,-2.3278,-2.3274,-2.3066,-2.3236,-2.3235,-2.3233,-2.3232,-2.3232,-2.3269,-2.3299,-2.3296,-2.3319,-2.332,-2.3327,-2.3353,-2.3339,-2.3359,-2.3376,-2.3352,-2.3384,-2.3383,-2.3395,-2.3395,-2.3421,-2.3392,-2.3412,-2.3417,-2.3423,-2.3432,-2.3274,-2.3423,-2.3422,-2.3422,-2.3421,-2.3421,0,-2.3422,-2.3418,-2.344,-2.345,-2.3469,-2.3432,-2.3437,-2.3455,-2.3484,-2.3486,-2.3502,-2.3533,-2.3555,-2.3539,-2.3557,-2.3581,-2.3564,-2.3587,-2.3585,-2.3585,-2.3456,-2.3443,-2.36,-2.36,-2.36,-2.36,-2.36,-2.36,-2.3504,-2.3553,-2.3539,-2.3589,-2.3584,-2.3616,-2.3623,-2.363,-2.3631,-2.3668,-2.3686,-2.3676,-2.3671,-2.3689,-2.3708,-2.3703,-2.3713,-2.3742,-2.3731,-2.3611,-2.3594,-2.3577,-2.3564,-2.3745,-2.3745,-2.3858,-2.3859,-2.386]},{"header":{"parameterUnit":"m.s-1","parameterCategory":1,"la1":30.2991,"la2":30.254,"lo1":-89.0895,"lo2":-89.0444,"dy":0.0017,"dx":0.0017,"nx":28,"ny":28,"refTime":"2026-02-08T03:00:00:Z","depth":0,"parameterNumber":3,"parameterNumberName":"V-component_of_WINDS"},"data":[0,0,0,0,0,0,0,0,0,0,0,0,0,0,0,0,0,0,0,0,0,0,0,0,0,0,0,0,0,0,0,0,0,0,0,0,0,0,0,0,0,0,0,0,0,0,0,0,0,0,0,0,0,0,0,0,0,0,-1.3839,-1.384,0,-1.3927,-1.3928,-1.3929,-1.3961,-1.3961,-1.396,-1.396,-1.4051,-1.4054,-1.4056,0,0,0,0,0,0,0,0,0,0,0,0,0,-1.37,-1.3703,-1.3839,-1.384,-1.3841,-1.3926,-1.3928,-1.3929,-1.3961,-1.396,-1.396,-1.396,-1.405,-1.4053,-1.4057,0,0,0,0,0,0,0,0,0,0,0,0,0,-1.3771,-1.3703,-1.3839,-1.3867,-1.3871,-1.3926,-1.3928,-1.3929,-1.3961,-1.396,-1.396,-1.396,-1.4049,-1.4053,-1.4057,-1.4091,0,0,-1.4069,-1.4071,0,0,0,0,0,0,0,0,-1.3767,-1.3777,-1.3862,-1.3865,-1.3869,-1.3932,-1.3912,-1.3983,-1.3961,-1.3927,-1.396,-1.3959,-1.4012,-1.4019,-1.4037,-1.4095,-1.4099,-1.407,-1.4072,-1.4074,-1.4075,0,0,0,0,0,0,0,-1.3762,-1.3773,-1.3874,-1.3863,-1.3868,-1.3876,-1.3886,-1.3926,-1.3971,-1.393,-1.3932,-1.3942,-1.4014,-1.4033,-1.4039,-1.41,-1.407,-1.4073,-1.4076,-1.4077,-1.4192,-1.4193,0,0,0,0,0,0,-1.3753,-1.3769,-1.3871,-1.3876,-1.3816,-1.3879,-1.389,-1.3913,-1.397,-1.3979,-1.3942,-1.3943,-1.4026,-1.4034,-1.4042,-1.4086,-1.4074,-1.4078,-1.408,-1.4192,-1.4192,-1.4193,0,0,0,0,0,0,-1.3749,-1.3761,-1.3867,-1.3823,-1.3837,-1.3882,-1.3907,-1.3914,-1.3933,-1.398,-1.3988,-1.3953,-1.4026,-1.4037,-1.4079,-1.409,-1.408,-1.4083,-1.4191,-1.4192,-1.4193,-1.4174,0,0,0,0,0,0,-1.3745,-1.376,-1.3773,-1.3823,-1.3839,-1.3902,-1.3908,-1.3917,-1.394,-1.3942,-1.3992,-1.4,-1.4026,-1.4072,-1.4083,-1.4095,-1.4086,-1.419,-1.4191,-1.4192,-1.4173,-1.4174,-1.4174,0,0,0,0,0,-1.374,-1.3764,-1.3773,-1.3786,-1.3856,-1.3902,-1.3912,-1.3941,-1.3941,-1.3954,-1.3985,-1.3999,-1.4087,-1.4076,-1.4088,-1.4102,-1.4189,-1.4191,-1.4192,-1.4173,-1.4174,-1.4174,0,0,0,0,0,0,-1.3714,-1.3771,-1.3782,-1.3823,-1.3857,-1.3907,-1.3925,-1.394,-1.3976,-1.3976,-1.4011,-1.4022,-1.4062,-1.4086,-1.4074,-1.4138,-1.4139,-1.4143,-1.4121,-1.4121,-1.4122,-1.4115,-1.409,0,0,0,0,0,-1.3713,-1.3745,-1.3793,-1.3825,-1.3842,-1.388,-1.3901,-1.3921,-1.3958,-1.3973,-1.4006,-1.4042,-1.4078,-1.4101,-1.4137,-1.4177,-1.4189,-1.4193,-1.4193,-1.4193,-1.4196,-1.4219,-1.4222,-1.4198,-1.4198,-1.4197,0,0,-1.3712,-1.3747,-1.3765,-1.3821,-1.385,-1.3882,-1.3893,-1.3927,-1.3951,-1.3979,-1.402,-1.4046,-1.4089,-1.413,-1.415,-1.4152,-1.4205,-1.4195,-1.4194,-1.4197,-1.4221,-1.4223,-1.4225,-1.4198,-1.4198,-1.4198,0,0,-1.3725,-1.3755,-1.3784,-1.3813,-1.3857,-1.3883,-1.389,-1.3938,-1.3956,-1.3998,-1.4019,-1.405,-1.4111,-1.414,-1.4163,-1.4189,-1.4203,-1.42,-1.4201,-1.4224,-1.4226,-1.4227,-1.4237,-1.424,-1.4202,-1.4202,-1.4202,0,-1.3718,-1.3767,-1.3798,-1.3831,-1.3855,-1.3881,-1.3911,-1.3938,-1.3991,-1.4008,-1.4009,-1.4086,-1.4117,-1.4166,-1.4172,-1.419,-1.4199,-1.4194,-1.4223,-1.4225,-1.4227,-1.4236,-1.424,-1.4202,-1.4202,-1.4202,-1.4202,0,-1.3756,-1.379,-1.3809,-1.3859,-1.3886,-1.3917,-1.3953,-1.3976,-1.3993,-1.4019,-1.4063,-1.41,-1.4144,-1.4157,-1.4175,-1.4209,-1.4209,-1.4216,-1.4217,-1.4228,-1.4237,-1.4241,-1.42,-1.4201,-1.4201,-1.4201,0,0,-1.3756,-1.3823,-1.3829,-1.3852,-1.3903,-1.393,-1.3963,-1.4005,-1.4025,-1.4061,-1.409,-1.4141,-1.4148,-1.4174,-1.4195,-1.4215,-1.4233,-1.422,-1.4222,-1.4221,-1.4274,-1.4268,-1.4271,-1.4243,-1.4244,-1.4245,-1.427,0,-1.3776,-1.3835,-1.3864,-1.3911,-1.3943,-1.3969,-1.3998,-1.4032,-1.4057,-1.4089,-1.4117,-1.4153,-1.4159,-1.4175,-1.4196,-1.4227,-1.4244,-1.4225,-1.4271,-1.4272,-1.4259,-1.4276,-1.427,-1.4292,-1.4274,-1.4275,-1.4275,0,-1.3808,-1.3843,-1.3893,-1.394,-1.3954,-1.398,-1.4021,-1.4051,-1.4091,-1.4108,-1.4137,-1.4158,-1.4194,-1.4193,-1.4244,-1.4231,-1.4251,-1.4269,-1.4271,-1.4276,-1.4274,-1.4282,-1.43,-1.4303,-1.4281,-1.4281,-1.428,0,-1.3802,-1.3863,-1.39,-1.392,-1.3975,-1.3992,-1.4016,-1.4056,-1.408,-1.4116,-1.4132,-1.4173,-1.4195,-1.4226,-1.4257,-1.4254,-1.4306,-1.4307,-1.4321,-1.432,-1.4331,-1.433,-1.4352,-1.4344,-1.4344,-1.4344,-1.4344,0,-1.3822,-1.3851,-1.3899,-1.3922,-1.3956,-1.3989,-1.4022,-1.4049,-1.4083,-1.4113,-1.4137,-1.4165,-1.4204,-1.4237,-1.4262,-1.43,-1.431,-1.4325,-1.4332,-1.4323,-1.4321,-1.4337,-1.4336,-1.4345,-1.4345,-1.4344,-1.4344,0,-1.3821,-1.3854,-1.3897,-1.3946,-1.3959,-1.3982,-1.4025,-1.4049,-1.4075,-1.4112,-1.4123,-1.4165,-1.4204,-1.4238,-1.4291,-1.4307,-1.4347,-1.4355,-1.4333,-1.4337,-1.4349,-1.4347,-1.4382,-1.4389,-1.4376,-1.4376,-1.4376,0,-1.3832,-1.3855,-1.3906,-1.3927,-1.3951,-1.3985,-1.4009,-1.4043,-1.4067,-1.4115,-1.4133,-1.4174,-1.4209,-1.4271,-1.4306,-1.4347,-1.4356,-1.4365,-1.4362,-1.4353,-1.4356,-1.4354,-1.4357,-1.4365,-1.4365,-1.4365,-1.4365,0,-1.3846,-1.3861,-1.3895,-1.3935,-1.3963,-1.3996,-1.403,-1.4046,-1.4087,-1.4113,-1.4153,-1.418,-1.4233,-1.4274,-1.4318,-1.4344,-1.4361,-1.4366,-1.4371,-1.4363,-1.4349,-1.4357,-1.4333,-1.4365,-1.4365,-1.4365,-1.4365,-1.4365,-1.3852,-1.3874,-1.3913,-1.3951,-1.398,-1.4011,-1.4036,-1.4065,-1.4099,-1.4145,-1.4163,-1.4204,-1.4244,-1.4305,-1.4331,-1.4364,-1.4367,-1.4375,-1.4377,-1.4378,-1.4377,-1.4344,-1.4372,-1.4372,-1.4372,-1.4373,-1.4373,0,-1.3868,-1.3895,-1.3928,-1.3975,-1.4004,-1.4017,-1.4056,-1.4079,-1.4115,-1.4151,-1.4184,-1.4231,-1.4271,-1.4309,-1.4351,-1.4371,-1.438,-1.4381,-1.438,-1.4385,-1.4372,-1.4363,-1.4373,-1.4373,-1.4373,-1.4373,-1.4373,-1.4373,-1.388,-1.3918,-1.3938,-1.3991,-1.4018,-1.4057,-1.4078,-1.4107,-1.4136,-1.4187,-1.422,-1.4244,-1.4282,-1.4327,-1.4364,-1.4374,-1.4389,-1.4388,-1.44,-1.4387,-1.4386,-1.4386,-1.4378,-1.439,-1.439,-1.4411,-1.4411,-1.4412]}]]